DW9433 Weather Reports


Display with metric or nautical units.
time (UTC)temp
F
wind
direction
speed
MPH
gust
MPH
rain 1hr
in
rain 24hr
in
rain mn
in
humidity
%
barometer
mb
20260510153054 80 226 0.0 0.0 0.00 0.00 0.00 67 1015.6
20260510151549 79 202 0.0 0.0 0.00 0.00 0.00 73 1015.5
20260510150047 78 162 0.0 0.0 0.00 0.00 0.00 73 1015.6
20260510144548 77 39 0.0 2.0 0.00 0.00 0.00 76 1015.8
20260510143042 76 231 0.0 0.0 0.00 0.00 0.00 78 1015.8
20260510141537 75 281 0.0 0.0 0.00 0.00 0.00 79 1015.6
20260510140036 73 248 0.0 0.0 0.00 0.00 0.00 81 1015.4
20260510134530 72 260 0.0 1.0 0.00 0.00 0.00 82 1015.2
20260510133024 71 49 0.0 0.0 0.00 0.00 0.00 85 1015.5
20260510131528 69 48 0.0 0.0 0.00 0.00 0.00 88 1015.2
20260510130017 67 48 0.0 0.0 0.00 0.00 0.00 90 1015.3
20260510124512 66 48 0.0 0.0 0.00 0.00 0.00 91 1015.2
20260510123019 64 48 0.0 0.0 0.00 0.00 0.00 91 1015.1
20260510121506 62 48 0.0 0.0 0.00 0.00 0.00 92 1015.0
20260510120002 60 48 0.0 0.0 0.00 0.00 0.00 94 1015.0
20260510114559 58 48 0.0 0.0 0.00 0.00 0.00 94 1015.0
20260510113103 57 48 0.0 0.0 0.00 0.00 0.00 94 1014.9
20260510111555 57 48 0.0 0.0 0.00 0.00 0.00 93 1014.5
20260510110053 57 48 0.0 0.0 0.00 0.00 0.00 93 1014.3
20260510104601 57 48 0.0 0.0 0.00 0.00 0.00 92 1014.0
20260510103050 57 48 0.0 0.0 0.00 0.00 0.00 92 1013.7
20260510101549 57 48 0.0 0.0 0.00 0.00 0.00 92 1013.7
20260510100047 57 48 0.0 0.0 0.00 0.00 0.00 92 1013.5
20260510094558 57 48 0.0 0.0 0.00 0.00 0.00 91 1013.5
20260510093056 57 48 0.0 0.0 0.00 0.00 0.00 91 1013.2
20260510091545 57 48 0.0 0.0 0.00 0.00 0.00 91 1013.0
20260510090041 57 48 0.0 0.0 0.00 0.00 0.00 91 1012.8
20260510084540 57 48 0.0 0.0 0.00 0.00 0.00 90 1012.6
20260510083042 57 48 0.0 0.0 0.00 0.00 0.00 91 1012.8
20260510081537 57 48 0.0 0.0 0.00 0.00 0.00 90 1012.7
20260510080036 57 48 0.0 0.0 0.00 0.00 0.00 90 1012.6
20260510074536 57 48 0.0 0.0 0.00 0.00 0.00 90 1012.6
20260510073042 57 48 0.0 0.0 0.00 0.00 0.00 89 1012.5
20260510071532 57 48 0.0 0.0 0.00 0.00 0.00 89 1012.5
20260510070034 57 48 0.0 0.0 0.00 0.00 0.00 89 1012.5
20260510064530 57 48 0.0 0.0 0.00 0.00 0.00 88 1012.6
20260510063028 58 48 0.0 0.0 0.00 0.00 0.00 88 1012.4
20260510061525 58 48 0.0 0.0 0.00 0.00 0.00 88 1012.1
20260510060026 58 48 0.0 0.0 0.00 0.00 0.00 88 1012.0
20260510054524 58 48 0.0 0.0 0.00 0.00 0.00 88 1012.0
20260510053044 58 48 0.0 0.0 0.00 0.00 0.00 87 1012.0
20260510051521 59 48 0.0 0.0 0.00 0.00 0.00 86 1012.0
20260510050018 59 48 0.0 0.0 0.00 0.00 0.00 86 1012.0
20260510044518 60 48 0.0 0.0 0.00 0.00 0.00 85 1012.0
20260510043036 60 48 0.0 0.0 0.00 0.00 0.00 85 1011.9
20260510041523 60 48 0.0 0.0 0.00 0.00 0.00 84 1012.0
20260510040032 61 48 0.0 0.0 0.00 0.00 0.00 83 1012.1
20260510034516 61 48 0.0 0.0 0.00 0.00 0.00 83 1012.1
20260510033016 62 48 0.0 0.0 0.00 0.00 0.00 81 1012.1
20260510031521 63 48 0.0 0.0 0.00 0.00 0.00 80 1012.0
20260510030014 63 48 0.0 0.0 0.00 0.00 0.00 79 1011.9
20260510024515 64 48 0.0 0.0 0.00 0.00 0.00 76 1011.9
20260510023012 65 48 0.0 0.0 0.00 0.00 0.00 74 1011.8
20260510021522 66 48 0.0 0.0 0.00 0.00 0.00 73 1011.5
20260510020008 67 48 0.0 0.0 0.00 0.00 0.00 70 1011.2
20260510014506 68 48 0.0 0.0 0.00 0.00 0.00 68 1011.0
20260510013005 69 48 0.0 0.0 0.00 0.00 0.00 65 1010.8
20260510011505 70 48 0.0 0.0 0.00 0.00 0.00 62 1010.6
20260510010004 72 48 0.0 0.0 0.00 0.00 0.00 59 1010.4
20260510004504 74 48 0.0 0.0 0.00 0.00 0.00 57 1010.2
20260510003005 76 28 0.0 0.0 0.00 0.00 0.00 53 1010.0
20260510001503 78 28 0.0 0.0 0.00 0.00 0.00 47 1009.9
20260510000003 79 28 0.0 0.0 0.00 0.00 0.00 40 1009.7
20260509234502 80 28 0.0 0.0 0.00 0.00 0.00 38 1009.6
20260509233001 80 30 0.0 0.0 0.00 0.00 0.00 38 1009.4
20260509231601 81 33 0.0 0.0 0.00 0.00 0.00 36 1009.4
20260509230100 81 32 0.0 1.0 0.00 0.00 0.00 37 1009.3
20260509224600 81 24 0.0 0.0 0.00 0.00 0.00 38 1009.2
20260509223102 81 24 0.0 0.0 0.00 0.00 0.00 40 1009.2
20260509221558 82 25 0.0 0.0 0.00 0.00 0.00 39 1009.3
20260509214628 82 201 0.0 0.0 0.00 0.00 0.00 34 1009.4
20260509213056 83 201 0.0 0.0 0.00 0.00 0.00 37 1009.5
20260509211555 83 33 0.0 0.0 0.00 0.00 0.00 36 1009.6
20260509210105 83 147 0.0 4.0 0.00 0.00 0.00 37 1009.6
20260509204554 83 174 0.0 0.0 0.00 0.00 0.00 39 1009.7
20260509203102 83 113 0.0 3.0 0.00 0.00 0.00 37 1009.7
20260509201553 84 340 0.0 2.0 0.00 0.00 0.00 37 1009.8
20260509200051 83 341 0.0 0.0 0.00 0.00 0.00 34 1009.9
20260509194551 83 206 0.0 0.0 0.00 0.00 0.00 37 1010.1
20260509193055 83 258 0.0 0.0 0.00 0.00 0.00 37 1010.0
20260509191558 83 255 0.0 0.0 0.00 0.00 0.00 43 1010.1
20260509190051 82 36 0.0 4.0 0.00 0.00 0.00 43 1010.1
20260509184555 82 163 0.0 0.0 0.00 0.00 0.00 47 1010.2
20260509183050 81 162 0.0 3.0 0.00 0.00 0.00 46 1010.3
20260509181539 81 28 0.0 0.0 0.00 0.00 0.00 47 1010.4
20260509180038 81 30 0.0 3.0 0.00 0.00 0.00 49 1010.6
20260509174545 80 24 0.0 4.0 0.00 0.00 0.00 48 1010.6
20260509173034 79 38 0.0 0.0 0.00 0.00 0.00 51 1010.6
20260509171532 79 24 2.0 8.0 0.00 0.00 0.00 57 1010.6
20260509170029 79 15 0.0 2.0 0.00 0.00 0.00 57 1010.7
20260509164528 78 17 0.0 3.0 0.00 0.00 0.00 55 1010.8
20260509163037 78 38 0.0 1.0 0.00 0.00 0.00 57 1010.8
20260509161524 78 71 0.0 0.0 0.00 0.00 0.00 57 1010.8
20260509160023 77 36 0.0 1.0 0.00 0.00 0.00 56 1010.6
20260509154521 76 19 0.0 0.0 0.00 0.00 0.00 58 1010.5